Alexandria, LA

5:27 AM CDT on August 17, 2017 (GMT -0500)
Alexandria International

Weather History for KAEX - December, 2002

Change the Weather History Date:

Tuesday, December 3, 2002

  Actual Average Record
Temperature  
Mean Temperature 56 °F 52 °F  
Max Temperature 62 °F 63 °F 83 °F (1906)
Min Temperature 50 °F 42 °F 21 °F (1929)
Degree Days  
Heating Degree Days 9 13  
Month to date heating degree days 39  
Since 1 July heating degree days 364  
Growing Degree Days 6 (Base 50)    
Moisture  
Dew Point 58 °F    
Average Humidity 97    
Maximum Humidity 100    
Minimum Humidity 88    
Precipitation  
Precipitation 1.16 in 0.24 in 4.48 in (2016)
Month to date precipitation 0.81  
Year to date precipitation 50.61  
Snow  
Snow 0.00 in - 0.00 in ()
Month to date snowfall  
Since 1 July snowfall  
Snow Depth -    
Sea Level Pressure  
Sea Level Pressure 30.07 in    
Wind  
Wind Speed 4 mph (East)    
Max Wind Speed 18 mph    
Max Gust Speed 21 mph    
Visibility 5 miles    
Events Rain , Thunderstorm    
T = Trace of Precipitation, MM = Missing Value Source: NWS Daily Summary

Daily Weather History Graph

Daily Weather History Graph

Search for Another Location

Airport or City:

Trip Planner

Search our weather history database for the weather conditions in past years. The results will help you decide how hot, cold, wet, or windy it might be!

Date:

Astronomy

Dec. 03, 2002 Rise Set
Actual Time 6:52 AM CST 5:07 PM CST
Civil Twilight 6:26 AM CST 5:33 PM CST
Nautical Twilight 5:56 AM CST 6:03 PM CST
Astronomical Twilight 5:27 AM CST 6:32 PM CST
Moon 6:03 AM CST (12/3) 4:42 PM CST (12/3)
Length of Visible Light 11h 07m
Length of Day
10h 14m
Waning Crescent, 0% of the Moon is Illuminated
Dec 3
Waning Crescent
Dec 4
New
Dec 11
First Quarter
Dec 19
Full
Dec 26
Last Quarter

Hourly Weather History & Observations

Time (CST) Temp. Dew Point Humidity Pressure Visibility Wind Dir Wind Speed Gust Speed Precip Events Conditions
12:53 AM 57.0 °F 54.0 °F 89% 30.09 in 10.0 mi Calm Calm - N/A   Mostly Cloudy
1:53 AM 55.0 °F 54.0 °F 96% 30.09 in 10.0 mi Calm Calm - N/A   Partly Cloudy
2:53 AM 54.0 °F 53.1 °F 97% 30.09 in 8.0 mi Calm Calm - N/A   Mostly Cloudy
3:39 AM 51.8 °F 51.8 °F 100% 30.08 in 1.8 mi Calm Calm - N/A   Scattered Clouds
3:53 AM 52.0 °F 51.1 °F 97% 30.10 in 4.0 mi Calm Calm - N/A   Scattered Clouds
4:53 AM 52.0 °F 51.1 °F 97% 30.08 in 8.0 mi Calm Calm - N/A   Clear
5:20 AM 53.6 °F 51.8 °F 94% 30.07 in 2.0 mi SSE 3.5 mph - N/A   Clear
5:33 AM 51.8 °F 51.8 °F 100% 30.07 in 3.0 mi ESE 3.5 mph - N/A   Clear
5:53 AM 50.0 °F 50.0 °F 100% 30.10 in 1.5 mi Calm Calm - N/A   Scattered Clouds
6:03 AM 50.0 °F 50.0 °F 100% 30.09 in 3.0 mi Calm Calm - N/A   Mostly Cloudy
6:53 AM 55.0 °F 53.1 °F 93% 30.12 in 10.0 mi Calm Calm - N/A   Overcast
7:53 AM 57.0 °F 55.0 °F 93% 30.13 in 7.0 mi East 4.6 mph - N/A   Overcast
8:53 AM 59.0 °F 55.9 °F 90% 30.14 in 7.0 mi ESE 6.9 mph - N/A   Overcast
9:40 AM 59.0 °F 55.4 °F 88% 30.13 in 3.0 mi ESE 4.6 mph - 0.02 in Rain Light Rain
9:53 AM 59.0 °F 57.0 °F 93% 30.14 in 3.0 mi East 4.6 mph - 0.04 in Rain Light Rain
10:06 AM 59.0 °F 57.2 °F 94% 30.14 in 5.0 mi SSE 3.5 mph - 0.00 in Rain Light Rain
10:53 AM 59.0 °F 57.9 °F 96% 30.14 in 4.0 mi Calm Calm - 0.02 in Rain Light Rain
11:01 AM 59.0 °F 59.0 °F 100% 30.12 in 1.8 mi ENE 3.5 mph - 0.02 in Rain Rain
11:14 AM 59.0 °F 59.0 °F 100% 30.12 in 2.0 mi ENE 3.5 mph - 0.03 in Rain Light Rain
11:27 AM 60.8 °F 59.0 °F 94% 30.10 in 3.0 mi East 5.8 mph - 0.03 in Rain Light Rain
11:53 AM 60.1 °F 59.0 °F 96% 30.09 in 4.0 mi East 6.9 mph - 0.04 in Rain Light Rain
12:12 PM 60.8 °F 60.8 °F 100% 30.08 in 2.5 mi East 5.8 mph - 0.04 in Rain Rain
12:19 PM 60.8 °F 60.8 °F 100% 30.08 in 3.0 mi East 4.6 mph - 0.04 in Rain Light Rain
12:41 PM 60.8 °F 60.8 °F 100% 30.06 in 3.0 mi East 9.2 mph - 0.07 in Rain Rain
12:53 PM 61.0 °F 60.1 °F 97% 30.06 in 2.5 mi East 6.9 mph - 0.08 in Rain Light Rain
12:55 PM 60.8 °F 60.8 °F 100% 30.05 in 3.0 mi East 6.9 mph - 0.00 in Rain Light Rain
1:53 PM 62.1 °F 60.1 °F 93% 30.05 in 5.0 mi East 5.8 mph - 0.04 in Rain Rain
2:06 PM 60.8 °F 60.8 °F 100% 30.04 in 2.0 mi East 4.6 mph - 0.04 in Rain Heavy Rain
2:16 PM 60.8 °F 60.8 °F 100% 30.05 in 1.5 mi Calm Calm - 0.09 in Rain Heavy Rain
2:23 PM 60.8 °F 60.8 °F 100% 30.05 in 1.0 mi WSW 3.5 mph - 0.14 in Rain Heavy Rain
2:33 PM 60.8 °F 60.8 °F 100% 30.07 in 0.8 mi Calm Calm - 0.20 in Rain Heavy Rain
2:53 PM 61.0 °F 61.0 °F 100% 30.08 in 1.0 mi ESE 3.5 mph - 0.35 in Rain Heavy Rain
3:11 PM 60.8 °F 60.8 °F 100% 30.07 in 1.5 mi Calm Calm - 0.03 in Rain Rain
3:22 PM 60.8 °F 60.8 °F 100% 30.08 in 2.0 mi North 5.8 mph - 0.04 in Rain Light Rain
3:32 PM 60.8 °F 60.8 °F 100% 30.08 in 1.5 mi North 6.9 mph - 0.07 in Rain Heavy Rain
3:53 PM 61.0 °F 61.0 °F 100% 30.09 in 1.8 mi NNE 10.4 mph - 0.15 in Rain Rain
4:03 PM 60.8 °F 60.8 °F 100% 30.07 in 2.0 mi NE 11.5 mph - 0.02 in Rain Rain
4:13 PM 60.8 °F 60.8 °F 100% 30.07 in 3.0 mi NE 11.5 mph - 0.03 in Rain Light Rain
4:28 PM 60.8 °F 60.8 °F 100% 30.07 in 7.0 mi ENE 10.4 mph - 0.04 in Rain Light Rain
4:40 PM 60.8 °F 60.8 °F 100% 30.07 in 7.0 mi ENE 11.5 mph - 0.04 in Rain Light Rain
4:53 PM 61.0 °F 60.1 °F 97% 30.09 in 5.0 mi East 9.2 mph - 0.07 in Rain Rain
5:00 PM 60.8 °F 60.8 °F 100% 30.07 in 3.0 mi ENE 9.2 mph - 0.04 in Rain Heavy Rain
5:02 PM 60.8 °F 60.8 °F 100% 30.07 in 3.0 mi NE 9.2 mph - 0.04 in Rain Heavy Rain
5:53 PM 57.0 °F 55.9 °F 96% 30.04 in 7.0 mi East 13.8 mph 20.7 mph 0.15 in Rain Rain
6:00 PM 57.2 °F 55.4 °F 94% 30.04 in 7.0 mi ENE 10.4 mph 20.7 mph 0.00 in Rain Light Rain
6:10 PM 57.2 °F 55.4 °F 94% 30.06 in 9.0 mi ENE 9.2 mph - 0.01 in Rain Light Rain
6:53 PM 55.9 °F 55.0 °F 97% 30.07 in 10.0 mi ENE 10.4 mph 17.3 mph 0.02 in Rain Light Rain
7:35 PM 55.4 °F 55.4 °F 100% 30.06 in 9.0 mi East 10.4 mph - 0.00 in   Overcast
7:46 PM 55.4 °F 55.4 °F 100% 30.06 in 9.0 mi East 12.7 mph - 0.00 in   Overcast
7:53 PM 55.9 °F 55.0 °F 97% 30.08 in 9.0 mi East 8.1 mph - 0.00 in   Overcast
8:53 PM 57.0 °F 55.9 °F 96% 30.04 in 6.0 mi East 9.2 mph - 0.06 in Rain , Thunderstorm Light Rain
9:14 PM 57.2 °F 57.2 °F 100% 30.06 in 2.5 mi NNE 8.1 mph - 0.09 in Rain Heavy Rain
9:23 PM 57.2 °F 57.2 °F 100% 30.04 in 4.0 mi East 11.5 mph - 0.11 in Rain Light Rain
9:53 PM 60.1 °F 59.0 °F 96% 30.04 in 8.0 mi ESE 12.7 mph - 0.12 in Rain Light Rain
10:02 PM 60.8 °F 59.0 °F 94% 30.01 in 4.0 mi ESE 13.8 mph - 0.01 in Rain , Thunderstorm Thunderstorms and Rain
10:19 PM 60.8 °F 59.0 °F 94% 30.01 in 10.0 mi SE 18.4 mph - 0.02 in Rain Light Rain
10:53 PM 61.0 °F 59.0 °F 93% 30.01 in 10.0 mi SE 17.3 mph - 0.02 in Rain Light Rain
11:44 PM 60.8 °F 59.0 °F 94% 29.99 in 10.0 mi SSE 15.0 mph - 0.00 in   Overcast
11:53 PM 61.0 °F 57.9 °F 90% 29.98 in 10.0 mi SSE 18.4 mph - 0.00 in   Overcast